TimeHST,TemperatureF,Dew PointF,Humidity,Sea Level PressureIn,VisibilityMPH,Wind Direction,Wind SpeedMPH,Gust SpeedMPH,PrecipitationIn,Events,Conditions,WindDirDegrees,DateUTC
12:53 AM,66.9,55.0,66,30.03,10.0,NW,8.1,-,N/A,,Mostly Cloudy,310,2013-01-20 10:53:00
1:53 AM,66.9,55.0,66,30.02,10.0,NNW,4.6,-,N/A,,Partly Cloudy,330,2013-01-20 11:53:00
2:53 AM,66.0,55.0,68,30.01,10.0,NNW,3.5,-,N/A,,Partly Cloudy,330,2013-01-20 12:53:00
3:53 AM,64.9,55.0,70,30.00,10.0,NW,3.5,-,N/A,,Partly Cloudy,310,2013-01-20 13:53:00
4:53 AM,61.0,55.0,81,30.01,10.0,Calm,Calm,-,N/A,,Scattered Clouds,0,2013-01-20 14:53:00
5:53 AM,64.0,55.9,75,30.03,10.0,NW,5.8,-,N/A,,Partly Cloudy,310,2013-01-20 15:53:00
6:53 AM,64.9,57.0,75,30.04,10.0,NW,5.8,-,N/A,,Scattered Clouds,310,2013-01-20 16:53:00
7:53 AM,64.9,57.0,75,30.05,10.0,WNW,6.9,-,N/A,,Scattered Clouds,300,2013-01-20 17:53:00
8:53 AM,71.1,57.0,61,30.07,10.0,Variable,5.8,-,N/A,,Scattered Clouds,0,2013-01-20 18:53:00
9:53 AM,73.9,53.1,48,30.08,10.0,NE,10.4,-,N/A,,Scattered Clouds,40,2013-01-20 19:53:00
10:53 AM,75.9,54.0,46,30.08,10.0,NNE,16.1,25.3,N/A,,Scattered Clouds,20,2013-01-20 20:53:00
11:53 AM,77.0,53.1,43,30.06,10.0,NNE,16.1,26.5,N/A,,Scattered Clouds,30,2013-01-20 21:53:00
12:53 PM,78.1,53.1,42,30.02,10.0,North,10.4,16.1,N/A,,Partly Cloudy,10,2013-01-20 22:53:00
1:53 PM,78.1,53.1,42,30.00,10.0,NNE,15.0,24.2,N/A,,Partly Cloudy,20,2013-01-20 23:53:00
2:53 PM,77.0,53.1,43,29.99,10.0,NNE,12.7,24.2,N/A,,Partly Cloudy,30,2013-01-21 00:53:00
3:53 PM,77.0,51.1,40,29.99,10.0,NNE,15.0,20.7,N/A,,Partly Cloudy,20,2013-01-21 01:53:00
4:53 PM,75.0,53.1,46,30.00,10.0,NNE,10.4,-,N/A,,Partly Cloudy,20,2013-01-21 02:53:00
5:53 PM,73.0,54.0,51,30.02,10.0,NE,8.1,-,N/A,,Partly Cloudy,40,2013-01-21 03:53:00
6:53 PM,71.1,55.0,57,30.03,10.0,North,5.8,-,N/A,,Partly Cloudy,10,2013-01-21 04:53:00
7:53 PM,70.0,55.9,61,30.06,10.0,North,3.5,-,N/A,,Partly Cloudy,10,2013-01-21 05:53:00
8:53 PM,69.1,55.9,63,30.07,10.0,North,4.6,-,N/A,,Partly Cloudy,360,2013-01-21 06:53:00
9:53 PM,69.1,57.0,65,30.07,10.0,NNW,5.8,-,N/A,,Partly Cloudy,340,2013-01-21 07:53:00
10:53 PM,68.0,57.0,68,30.07,10.0,NW,5.8,-,N/A,,Partly Cloudy,310,2013-01-21 08:53:00
11:53 PM,69.1,55.9,63,30.06,10.0,Variable,3.5,-,N/A,,Partly Cloudy,0,2013-01-21 09:53:00